contact:dominique.lefevre@mio.osupytheas.fr, maurice.libes@osupytheas.fr, didier.mallarino@osupytheas.fr
Project:EMSO http://www.emso-fr.org/EMSO-France
Depth: 2436.0 m
Title:EMSO Ligure Ouest : Data MII capteur AQUADOPP
Date,Latitude,Longitude,X_East,Y_North,Z_Up,Amplitude_X,Amplitude_Y,Amplitude_Z,Batterie,SoundSpeed,Heading,Pitch,Roll,Pressure,TIS,Speed,Direction
, degrees North, degrees East, m.s-1, m.s-1,m.s-1, 1, 1, 1, Volt, m.s-1, degree, degree, degree, dbar, degree_C, m.s-1, degree
2019-05-23T19:10:40,42.805,6.029,-0.035,-0.003,-0.014,98.0,106.0,96.0,13.4,1505.2,326.1,-0.9,1.9,2470.297,13.29,0.035,265.1
2019-05-23T19:13:41,42.805,6.029,-0.009,0.012,0.006,98.0,106.0,96.0,13.4,1505.3,327.1,-0.8,2.0,2470.281,13.31,0.015,323.1
2019-05-23T19:16:42,42.805,6.029,-0.008,0.0,0.027,98.0,108.0,95.0,13.3,1505.3,326.5,-0.9,1.9,2470.295,13.32,0.008,270.0
2019-05-23T19:29:04,42.805,6.029,-0.004,0.004,0.018,98.0,107.0,96.0,13.4,1505.2,325.8,-0.9,1.9,2470.287,13.29,0.005,315.0
2019-05-23T19:32:05,42.805,6.029,-0.032,0.008,0.023,97.0,106.0,97.0,13.4,1505.3,326.9,-0.9,1.9,2470.244,13.31,0.032,284.0
2019-05-23T19:35:06,42.805,6.029,0.011,-0.005,-0.005,97.0,109.0,96.0,13.4,1505.3,327.1,-0.8,1.9,2470.223,13.32,0.012,114.4
2019-05-23T19:38:07,42.805,6.029,0.0,0.01,0.028,97.0,109.0,97.0,13.3,1505.3,328.4,-0.8,1.9,2470.227,13.33,0.01,0.0
2019-05-23T19:41:08,42.805,6.029,0.015,0.001,-0.005,99.0,107.0,96.0,13.4,1505.3,327.3,-0.8,1.9,2470.165,13.33,0.015,86.2
2019-05-23T19:44:09,42.805,6.029,0.008,-0.008,0.036,98.0,107.0,96.0,13.4,1505.3,327.0,-0.9,1.9,2470.126,13.33,0.011,135.0
2019-05-23T19:47:10,42.805,6.029,-0.015,-0.007,0.006,97.0,107.0,96.0,13.3,1505.4,325.2,-0.8,1.9,2470.164,13.34,0.016,245.0
2019-05-23T19:50:11,42.805,6.029,0.004,0.025,0.004,97.0,107.0,96.0,13.3,1505.4,323.8,-0.9,1.9,2470.153,13.34,0.025,9.1
2019-05-23T19:53:12,42.805,6.029,-0.008,0.024,0.026,98.0,107.0,98.0,13.4,1505.4,323.3,-0.9,1.9,2470.093,13.34,0.025,341.6
2019-05-23T19:56:13,42.805,6.029,-0.014,0.009,0.019,98.0,107.0,96.0,13.4,1505.4,324.8,-0.8,1.9,2470.105,13.34,0.016,302.7
2019-05-23T19:59:14,42.805,6.029,0.026,0.009,0.04,100.0,106.0,95.0,13.4,1505.4,325.4,-0.9,1.9,2470.1,13.34,0.027,70.9
2019-05-23T20:02:15,42.805,6.029,0.011,0.012,0.039,100.0,107.0,96.0,13.3,1505.4,326.3,-0.9,1.9,2470.073,13.34,0.016,42.5
2019-05-23T20:05:16,42.805,6.029,0.002,-0.005,0.024,100.0,108.0,97.0,13.3,1505.4,328.0,-0.9,1.9,2470.066,13.35,0.005,158.2
2019-05-23T20:08:17,42.805,6.029,0.028,0.013,0.034,98.0,106.0,97.0,13.4,1505.4,323.8,-0.9,1.9,2470.091,13.35,0.03,65.1
2019-05-23T20:11:18,42.805,6.029,0.019,0.0,0.032,98.0,105.0,97.0,13.3,1505.4,324.9,-0.9,1.9,2470.05,13.34,0.019,90.0
2019-05-23T20:14:19,42.805,6.029,0.019,-0.003,0.027,99.0,108.0,95.0,13.4,1505.4,323.2,-0.8,1.9,2470.109,13.35,0.019,99.0
2019-05-23T20:17:20,42.805,6.029,0.019,0.007,0.03,97.0,107.0,96.0,13.4,1505.4,325.7,-0.9,1.9,2470.062,13.35,0.02,69.8
2019-05-23T20:20:21,42.805,6.029,0.036,-0.001,0.043,98.0,108.0,96.0,13.4,1505.4,327.5,-0.9,1.9,2470.041,13.35,0.036,91.6
2019-05-23T20:23:22,42.805,6.029,0.018,-0.004,0.03,99.0,107.0,96.0,13.3,1505.4,326.6,-0.9,1.9,2470.094,13.35,0.018,102.5
2019-05-23T20:26:23,42.805,6.029,-0.002,0.0,0.022,99.0,107.0,95.0,13.3,1505.4,328.5,-0.8,1.9,2470.077,13.35,0.002,270.0
2019-05-23T20:29:24,42.805,6.029,0.012,0.006,0.034,98.0,107.0,96.0,13.4,1505.4,324.9,-0.8,1.9,2470.087,13.35,0.013,63.4
2019-05-23T20:32:25,42.805,6.029,0.006,0.025,0.029,97.0,107.0,96.0,13.4,1505.4,324.1,-0.9,1.9,2470.069,13.34,0.025,13.5
2019-05-23T20:35:26,42.805,6.029,0.001,0.013,0.009,97.0,107.0,96.0,13.4,1505.4,324.2,-0.8,1.9,2470.114,13.34,0.013,4.4
2019-05-23T20:38:27,42.805,6.029,-0.027,-0.007,-0.025,101.0,107.0,96.0,13.3,1505.4,325.0,-0.9,1.9,2470.126,13.34,0.027,255.5
2019-05-23T20:41:28,42.805,6.029,0.032,-0.009,0.016,100.0,107.0,95.0,13.4,1505.4,327.0,-0.9,1.9,2470.1,13.34,0.033,105.7
2019-05-23T20:44:29,42.805,6.029,0.0,0.006,0.05,99.0,106.0,97.0,13.3,1505.4,326.9,-0.9,1.9,2470.132,13.34,0.006,0.0
2019-05-23T20:47:30,42.805,6.029,0.008,0.0,0.044,98.0,107.0,98.0,13.3,1505.4,327.7,-0.9,1.9,2470.125,13.34,0.008,90.0
2019-05-23T20:50:31,42.805,6.029,0.0,0.004,-0.008,98.0,107.0,98.0,13.3,1505.4,326.9,-0.8,1.9,2470.081,13.34,0.004,0.0
2019-05-23T20:53:32,42.805,6.029,-0.006,0.021,0.028,99.0,106.0,97.0,13.4,1505.4,327.1,-0.8,1.9,2470.11,13.34,0.021,344.1
2019-05-23T20:56:33,42.805,6.029,-0.011,0.006,-0.018,99.0,107.0,97.0,13.4,1505.4,324.5,-0.9,1.9,2470.169,13.34,0.012,298.6
2019-05-23T20:59:34,42.805,6.029,-0.009,0.011,0.001,98.0,106.0,96.0,13.4,1505.4,326.8,-0.9,1.9,2470.15,13.34,0.014,320.7
2019-05-23T21:02:35,42.805,6.029,0.008,0.02,0.019,98.0,108.0,96.0,13.3,1505.4,325.2,-0.8,1.9,2470.077,13.34,0.021,21.8
2019-05-23T21:05:36,42.805,6.029,-0.006,0.015,0.019,99.0,107.0,96.0,13.4,1505.4,328.3,-0.8,1.9,2470.143,13.34,0.016,338.2
2019-05-23T21:08:37,42.805,6.029,0.02,0.0,0.013,97.0,108.0,96.0,13.3,1505.4,326.1,-0.8,1.9,2470.191,13.34,0.02,90.0
2019-05-23T21:11:38,42.805,6.029,0.022,0.007,0.04,98.0,107.0,96.0,13.4,1505.4,327.2,-0.9,1.9,2470.146,13.34,0.023,72.4
2019-05-23T21:14:39,42.805,6.029,0.001,-0.002,-0.006,99.0,107.0,96.0,13.4,1505.4,325.2,-0.9,1.9,2470.15,13.34,0.002,153.4
2019-05-23T21:17:40,42.805,6.029,0.012,0.0,0.033,99.0,107.0,95.0,13.4,1505.4,326.7,-0.8,1.9,2470.138,13.34,0.012,90.0
2019-05-23T21:20:41,42.805,6.029,-0.004,0.007,0.019,99.0,108.0,96.0,13.4,1505.4,325.5,-0.9,2.0,2470.162,13.34,0.008,330.3
2019-05-23T21:23:42,42.805,6.029,0.013,0.006,0.013,101.0,106.0,96.0,13.3,1505.4,324.1,-0.9,1.9,2470.134,13.34,0.014,65.2
2019-05-23T21:26:43,42.805,6.029,0.024,0.0,-0.012,99.0,107.0,97.0,13.3,1505.4,324.2,-0.8,1.9,2470.15,13.34,0.024,90.0
2019-05-23T21:29:44,42.805,6.029,0.013,0.001,0.009,99.0,107.0,96.0,13.3,1505.4,324.4,-0.8,1.9,2470.181,13.34,0.013,85.6
2019-05-23T21:32:45,42.805,6.029,-0.007,0.005,0.043,99.0,108.0,97.0,13.4,1505.4,327.3,-0.9,1.9,2470.149,13.34,0.008,305.5
2019-05-23T21:35:46,42.805,6.029,0.012,0.004,0.029,99.0,107.0,98.0,13.4,1505.4,324.6,-0.9,1.9,2470.156,13.34,0.012,71.6
2019-05-23T21:38:47,42.805,6.029,0.023,-0.004,0.025,100.0,108.0,97.0,13.4,1505.3,327.9,-0.9,1.9,2470.195,13.33,0.023,99.9
2019-05-23T21:41:48,42.805,6.029,0.0,-0.01,0.031,98.0,108.0,96.0,13.4,1505.3,327.6,-0.8,1.9,2470.158,13.33,0.01,180.0
2019-05-23T21:44:49,42.805,6.029,-0.001,0.005,0.019,99.0,108.0,96.0,13.3,1505.3,325.8,-0.9,1.9,2470.163,13.33,0.005,348.7
2019-05-23T21:47:50,42.805,6.029,0.025,0.004,0.029,99.0,106.0,97.0,13.4,1505.3,326.5,-0.8,1.9,2470.182,13.33,0.025,80.9
2019-05-23T21:50:51,42.805,6.029,-0.013,0.0,-0.01,98.0,108.0,97.0,13.4,1505.3,323.3,-0.8,1.9,2470.178,13.33,0.013,270.0
2019-05-23T21:53:52,42.805,6.029,0.014,-0.003,-0.001,98.0,107.0,96.0,13.4,1505.3,327.3,-0.8,1.9,2470.193,13.33,0.014,102.1
2019-05-23T21:56:53,42.805,6.029,-0.004,0.001,0.006,98.0,108.0,96.0,13.3,1505.3,327.0,-0.8,1.9,2470.18,13.33,0.004,284.0
2019-05-23T21:59:54,42.805,6.029,0.016,0.007,0.019,97.0,106.0,96.0,13.4,1505.3,325.0,-0.8,1.9,2470.152,13.33,0.017,66.4
2019-05-23T22:02:55,42.805,6.029,0.016,-0.003,0.036,98.0,107.0,97.0,13.3,1505.3,323.1,-0.8,2.0,2470.211,13.33,0.016,100.6
2019-05-23T22:05:56,42.805,6.029,0.002,-0.009,-0.016,98.0,108.0,97.0,13.3,1505.3,324.7,-0.8,1.9,2470.182,13.33,0.009,167.5
2019-05-23T22:08:57,42.805,6.029,0.009,-0.008,-0.012,99.0,108.0,96.0,13.3,1505.3,325.1,-0.9,1.9,2470.208,13.33,0.012,131.6
2019-05-23T22:11:58,42.805,6.029,0.016,0.006,0.016,98.0,107.0,96.0,13.4,1505.3,325.8,-0.9,1.9,2470.166,13.33,0.017,69.4
2019-05-23T22:14:59,42.805,6.029,0.012,0.0,0.006,98.0,108.0,96.0,13.4,1505.3,325.0,-0.8,1.9,2470.27,13.33,0.012,90.0
2019-05-23T22:18:00,42.805,6.029,-0.007,0.016,0.0,99.0,107.0,97.0,13.3,1505.3,326.8,-0.9,2.0,2470.218,13.33,0.017,336.4
2019-05-23T22:21:01,42.805,6.029,0.028,0.003,0.028,98.0,107.0,96.0,13.4,1505.3,324.7,-0.9,2.0,2470.18,13.33,0.028,83.9
2019-05-23T22:24:02,42.805,6.029,0.013,0.002,0.013,98.0,107.0,97.0,13.3,1505.3,326.1,-0.9,1.9,2470.185,13.33,0.013,81.3
2019-05-23T22:27:03,42.805,6.029,0.016,0.008,0.009,97.0,108.0,96.0,13.4,1505.3,328.5,-0.9,1.9,2470.236,13.33,0.017,63.4
2019-05-23T22:30:04,42.805,6.029,0.009,0.005,0.053,97.0,107.0,96.0,13.3,1505.3,328.1,-0.9,1.9,2470.205,13.33,0.01,60.9
2019-05-23T22:33:05,42.805,6.029,0.024,0.0,0.027,98.0,108.0,96.0,13.4,1505.3,324.3,-0.8,1.9,2470.243,13.33,0.024,90.0
2019-05-23T22:36:06,42.805,6.029,0.012,0.0,0.003,98.0,106.0,96.0,13.4,1505.3,327.8,-0.9,2.0,2470.194,13.33,0.012,90.0
2019-05-23T22:39:07,42.805,6.029,0.0,-0.001,0.018,99.0,108.0,96.0,13.4,1505.3,326.6,-0.8,1.9,2470.17,13.33,0.001,180.0
2019-05-23T22:42:08,42.805,6.029,0.025,0.011,0.006,98.0,107.0,96.0,13.4,1505.3,327.5,-0.8,1.9,2470.185,13.33,0.027,66.3
2019-05-23T22:45:09,42.805,6.029,-0.01,-0.004,-0.009,98.0,107.0,95.0,13.3,1505.3,323.5,-0.8,1.9,2470.222,13.33,0.01,248.2
2019-05-23T22:48:10,42.805,6.029,0.014,0.002,0.026,98.0,108.0,95.0,13.3,1505.3,323.5,-0.8,2.0,2470.188,13.33,0.014,81.9
2019-05-23T22:51:11,42.805,6.029,-0.001,-0.007,-0.008,98.0,108.0,96.0,13.3,1505.3,326.6,-0.8,1.9,2470.267,13.33,0.007,188.1
2019-05-23T22:54:12,42.805,6.029,-0.028,-0.003,-0.006,97.0,107.0,96.0,13.4,1505.3,323.6,-0.9,1.9,2470.227,13.33,0.028,263.9
2019-05-23T22:57:13,42.805,6.029,0.022,-0.017,0.026,98.0,109.0,96.0,13.3,1505.3,325.5,-0.8,1.9,2470.238,13.33,0.027,127.7
2019-05-23T23:00:14,42.805,6.029,0.027,0.01,0.025,99.0,107.0,96.0,13.3,1505.3,325.1,-0.8,1.9,2470.222,13.33,0.028,69.7
2019-05-23T23:03:15,42.805,6.029,0.001,0.0,-0.001,100.0,107.0,96.0,13.3,1505.3,324.7,-0.9,1.9,2470.193,13.33,0.001,90.0
2019-05-23T23:06:16,42.805,6.029,0.011,-0.005,0.007,99.0,108.0,96.0,13.3,1505.3,325.8,-0.8,1.9,2470.194,13.33,0.012,114.4
2019-05-23T23:09:17,42.805,6.029,0.01,-0.018,-0.026,98.0,108.0,95.0,13.3,1505.3,327.6,-0.8,2.0,2470.267,13.33,0.02,150.9
2019-05-23T23:12:18,42.805,6.029,-0.006,-0.008,-0.011,98.0,107.0,96.0,13.3,1505.3,327.3,-0.8,1.9,2470.224,13.33,0.01,216.9
2019-05-23T23:15:19,42.805,6.029,0.017,-0.017,-0.009,98.0,108.0,96.0,13.3,1505.3,325.3,-0.8,1.9,2470.255,13.33,0.024,135.0
2019-05-23T23:18:20,42.805,6.029,-0.032,-0.011,-0.003,98.0,108.0,96.0,13.3,1505.3,326.3,-0.9,1.9,2470.203,13.33,0.033,251.0
2019-05-23T23:21:21,42.805,6.029,-0.002,-0.017,-0.028,98.0,107.0,97.0,13.4,1505.3,325.5,-0.9,1.9,2470.255,13.33,0.017,186.7
2019-05-23T23:24:22,42.805,6.029,0.01,0.008,0.018,99.0,107.0,96.0,13.4,1505.3,327.4,-0.8,1.9,2470.22,13.33,0.012,51.3
2019-05-23T23:27:23,42.805,6.029,0.008,0.003,0.028,97.0,107.0,96.0,13.3,1505.3,324.7,-0.9,1.9,2470.256,13.33,0.008,69.4
2019-05-23T23:30:24,42.805,6.029,0.01,-0.001,0.001,100.0,106.0,95.0,13.3,1505.3,327.6,-0.8,1.9,2470.219,13.33,0.01,95.7
2019-05-23T23:33:25,42.805,6.029,-0.001,-0.005,-0.018,99.0,109.0,96.0,13.4,1505.3,327.4,-0.8,1.9,2470.202,13.33,0.005,191.3
2019-05-23T23:36:26,42.805,6.029,-0.009,-0.001,-0.001,98.0,108.0,98.0,13.4,1505.3,325.6,-0.9,1.9,2470.228,13.33,0.009,263.7
2019-05-23T23:39:27,42.805,6.029,0.0,-0.004,0.001,98.0,107.0,97.0,13.4,1505.3,325.3,-0.9,2.0,2470.191,13.33,0.004,180.0
2019-05-23T23:42:28,42.805,6.029,0.013,-0.009,-0.014,99.0,108.0,97.0,13.4,1505.3,327.7,-0.9,1.9,2470.194,13.33,0.015,124.7
2019-05-23T23:45:29,42.805,6.029,0.031,-0.019,-0.006,98.0,106.0,96.0,13.4,1505.3,327.2,-0.9,1.9,2470.217,13.33,0.036,121.5
2019-05-23T23:48:30,42.805,6.029,0.028,-0.019,-0.009,99.0,109.0,96.0,13.3,1505.3,323.0,-0.9,1.9,2470.168,13.33,0.033,124.2
2019-05-23T23:51:31,42.805,6.029,0.001,-0.005,0.01,99.0,107.0,95.0,13.4,1505.3,327.7,-0.9,1.9,2470.244,13.33,0.005,168.7
2019-05-23T23:54:32,42.805,6.029,0.015,-0.004,0.013,99.0,107.0,96.0,13.3,1505.3,326.1,-0.8,1.9,2470.206,13.33,0.015,104.9
2019-05-23T23:57:33,42.805,6.029,0.036,-0.011,0.029,98.0,105.0,97.0,13.3,1505.3,323.0,-0.8,1.9,2470.198,13.33,0.037,107.0
